[[{"header":{"parameterUnit":"m.s-1","parameterCategory":2,"la1":30.2991,"la2":30.254,"lo1":-89.0895,"lo2":-89.0444,"dy":0.0017,"dx":0.0017,"nx":28,"ny":28,"refTime":"2023-09-08T03:00:00:Z","depth":"0","parameterNumber":2,"parameterNumberName":"U-component_of_CURRENTS"},"data":[0,0,0,0,0,0,0,0,0,0,0,0,0,0,0,0,0,0,0,0,0,0,0,0,0,0,0,0,0,0,0,0,0,0,0,0,0,0,0,0,0,0,0,0,0,0,0,0,0,0,0,0,0,0,0,0,0,0,0.3037,0.3038,0,0.3081,0.3081,0.3082,0.3107,0.3107,0.3107,0.3107,0.3114,0.3115,0.3115,0,0,0,0,0,0,0,0,0,0,0,0,0,0.3062,0.3061,0.3037,0.3038,0.3038,0.3081,0.3081,0.3082,0.3107,0.3107,0.3107,0.3107,0.3114,0.3115,0.3115,0,0,0,0,0,0,0,0,0,0,0,0,0,0.3075,0.3061,0.3037,0.3054,0.3056,0.308,0.3081,0.3082,0.3107,0.3107,0.3107,0.3107,0.3114,0.3115,0.3115,0.3122,0,0,0.3116,0.3117,0,0,0,0,0,0,0,0,0.3074,0.3074,0.3051,0.3053,0.3055,0.3086,0.3093,0.3093,0.3107,0.309,0.3107,0.3106,0.31,0.3102,0.3114,0.3122,0.3122,0.3117,0.3117,0.3117,0.3117,0,0,0,0,0,0,0,0.3073,0.3073,0.3057,0.3051,0.3054,0.3088,0.3089,0.3094,0.3097,0.3091,0.3093,0.3094,0.3101,0.3114,0.3114,0.3122,0.3117,0.3117,0.3117,0.3117,0.3156,0.3157,0,0,0,0,0,0,0.3058,0.3071,0.3055,0.3058,0.3061,0.3087,0.3089,0.3078,0.3098,0.31,0.3094,0.3095,0.3113,0.3114,0.3115,0.3134,0.3117,0.3117,0.3118,0.3155,0.3156,0.3157,0,0,0,0,0,0,0.3058,0.3056,0.3054,0.3065,0.3067,0.3086,0.3075,0.3079,0.3089,0.3099,0.3102,0.3099,0.3113,0.3114,0.312,0.3134,0.3118,0.3118,0.3154,0.3156,0.3157,0.3166,0,0,0,0,0,0,0.3059,0.3056,0.305,0.3063,0.3065,0.306,0.3075,0.308,0.3089,0.3091,0.3104,0.3105,0.3113,0.3119,0.3121,0.3134,0.3118,0.3153,0.3155,0.3156,0.3165,0.3167,0.3169,0,0,0,0,0,0.3059,0.3043,0.305,0.3048,0.3054,0.306,0.3064,0.308,0.3089,0.309,0.3105,0.3105,0.3129,0.312,0.3121,0.3136,0.3153,0.3154,0.3156,0.3164,0.3167,0.3169,0,0,0,0,0,0,0.3055,0.3045,0.3052,0.3035,0.3045,0.3063,0.3063,0.3078,0.3093,0.3093,0.3108,0.311,0.3125,0.3127,0.3116,0.3152,0.3144,0.3146,0.3149,0.3152,0.3154,0.3169,0.3119,0,0,0,0,0,0.3051,0.3032,0.3039,0.3027,0.3027,0.3048,0.3054,0.3064,0.3076,0.3083,0.3097,0.3114,0.3135,0.3138,0.3153,0.3163,0.3173,0.3176,0.3178,0.318,0.3194,0.3226,0.3233,0.3162,0.3162,0.3162,0,0,0.3046,0.3038,0.3029,0.3025,0.3033,0.3031,0.3051,0.3052,0.3063,0.308,0.3097,0.312,0.314,0.3161,0.3168,0.3161,0.3201,0.3182,0.3184,0.3197,0.3229,0.3236,0.3242,0.3164,0.3163,0.3163,0,0,0.3015,0.3019,0.2989,0.2996,0.3,0.3018,0.3016,0.3034,0.3053,0.307,0.3096,0.3133,0.3143,0.3181,0.3196,0.322,0.3215,0.3214,0.3235,0.3265,0.3271,0.3277,0.3278,0.3283,0.3213,0.3213,0.3213,0,0.3016,0.2972,0.2986,0.2968,0.2973,0.3008,0.2994,0.3022,0.3046,0.3071,0.307,0.3142,0.3162,0.3213,0.323,0.3228,0.3227,0.322,0.3268,0.3274,0.328,0.3279,0.3286,0.3213,0.3213,0.3213,0.3213,0,0.2959,0.2936,0.2922,0.291,0.2929,0.2917,0.2959,0.2989,0.302,0.3054,0.311,0.3152,0.3199,0.3215,0.3232,0.3288,0.3267,0.3268,0.326,0.3288,0.3285,0.3291,0.3214,0.3214,0.3214,0.3214,0,0,0.292,0.2885,0.2879,0.2869,0.2894,0.2902,0.294,0.2983,0.3022,0.3065,0.3114,0.3182,0.3221,0.3244,0.3277,0.3315,0.3358,0.3309,0.331,0.3307,0.3398,0.3264,0.3258,0.3359,0.336,0.3362,0.3372,0,0.2867,0.2803,0.2819,0.2798,0.2774,0.2844,0.2883,0.2944,0.3007,0.3069,0.3143,0.3198,0.3225,0.3257,0.3302,0.3356,0.3378,0.3354,0.3375,0.3375,0.3251,0.3262,0.3132,0.312,0.3378,0.3379,0.338,0,0.279,0.2764,0.271,0.2735,0.2738,0.2758,0.2846,0.2888,0.3003,0.3051,0.3133,0.3193,0.3284,0.3291,0.3386,0.3363,0.3383,0.3412,0.3412,0.3293,0.3253,0.3139,0.3122,0.307,0.3389,0.3389,0.3388,0,0.2714,0.269,0.2644,0.2647,0.2687,0.2716,0.2769,0.2882,0.294,0.3053,0.3105,0.3204,0.3261,0.332,0.3394,0.339,0.3474,0.3471,0.3362,0.3352,0.325,0.3227,0.3185,0.352,0.352,0.352,0.352,0,0.2622,0.2591,0.2608,0.2584,0.2597,0.2661,0.2716,0.2792,0.2909,0.2975,0.3092,0.3154,0.3272,0.3341,0.3391,0.3389,0.3467,0.3367,0.335,0.3244,0.3222,0.3179,0.3175,0.352,0.352,0.352,0.352,0,0.2521,0.2512,0.2485,0.2525,0.2546,0.2567,0.268,0.273,0.2847,0.2939,0.2976,0.3125,0.3199,0.3293,0.3385,0.3362,0.3287,0.3365,0.3215,0.3178,0.2981,0.2982,0.2783,0.271,0.3231,0.3227,0.3225,0,0.2438,0.2409,0.2442,0.2446,0.2462,0.2512,0.2553,0.2679,0.2741,0.2913,0.2945,0.3058,0.3116,0.3188,0.3183,0.3201,0.3168,0.306,0.3027,0.2944,0.2936,0.2819,0.2768,0.29,0.2895,0.289,0.2887,0,0.2328,0.2357,0.2352,0.2363,0.239,0.2425,0.2497,0.2533,0.2681,0.2755,0.285,0.2915,0.2982,0.294,0.2947,0.2946,0.2892,0.2966,0.2945,0.2715,0.2527,0.2457,0.291,0.2849,0.2853,0.2856,0.2858,0.2859,0.227,0.226,0.2273,0.2281,0.2306,0.2326,0.2327,0.2409,0.247,0.2559,0.2683,0.2722,0.2755,0.2739,0.2713,0.2576,0.2597,0.2508,0.253,0.2429,0.2302,0.2638,0.2513,0.2515,0.2516,0.2518,0.2519,0,0.2185,0.2188,0.2194,0.219,0.2176,0.223,0.2271,0.2257,0.2266,0.2378,0.2434,0.2454,0.2393,0.2411,0.2308,0.2195,0.2103,0.2139,0.2006,0.1992,0.2358,0.2289,0.2031,0.2031,0.2031,0.2031,0.2032,0.2032,0.2137,0.2108,0.2113,0.2054,0.2053,0.2006,0.2002,0.2,0.2049,0.2054,0.2072,0.2135,0.2219,0.2156,0.2022,0.1961,0.185,0.1692,0.174,0.2081,0.212,0.2156,0.209,0.1795,0.1795,0.1274,0.127,0.1268]},{"header":{"parameterUnit":"m.s-1","parameterCategory":2,"la1":30.2991,"la2":30.254,"lo1":-89.0895,"lo2":-89.0444,"dy":0.0017,"dx":0.0017,"nx":28,"ny":28,"refTime":"2023-09-08T03:00:00:Z","depth":"0","parameterNumber":3,"parameterNumberName":"V-component_of_CURRENTS"},"data":[0,0,0,0,0,0,0,0,0,0,0,0,0,0,0,0,0,0,0,0,0,0,0,0,0,0,0,0,0,0,0,0,0,0,0,0,0,0,0,0,0,0,0,0,0,0,0,0,0,0,0,0,0,0,0,0,0,0,0.042,0.042,0,0.0401,0.0401,0.0401,0.0389,0.0389,0.0389,0.0389,0.0355,0.0354,0.0353,0,0,0,0,0,0,0,0,0,0,0,0,0,0.0433,0.0433,0.042,0.042,0.042,0.0401,0.0401,0.0401,0.0389,0.0389,0.0389,0.0389,0.0355,0.0354,0.0353,0,0,0,0,0,0,0,0,0,0,0,0,0,0.0422,0.0433,0.042,0.0412,0.0411,0.0401,0.0401,0.0401,0.0389,0.0389,0.0389,0.0389,0.0355,0.0354,0.0353,0.0344,0,0,0.0348,0.0348,0,0,0,0,0,0,0,0,0.0423,0.0421,0.0413,0.0413,0.0412,0.0398,0.0393,0.0381,0.0389,0.0397,0.0389,0.0389,0.0368,0.0366,0.0361,0.0343,0.0341,0.0348,0.0347,0.0347,0.0346,0,0,0,0,0,0,0,0.0423,0.0422,0.0412,0.0413,0.0412,0.0405,0.0404,0.0391,0.0382,0.0396,0.0395,0.0394,0.0367,0.0363,0.036,0.0341,0.0348,0.0347,0.0346,0.0346,0.0315,0.0315,0,0,0,0,0,0,0.0428,0.0423,0.0412,0.0411,0.0418,0.0405,0.0403,0.0402,0.0382,0.038,0.0394,0.0394,0.0365,0.0362,0.0359,0.0366,0.0347,0.0346,0.0345,0.0315,0.0315,0.0315,0,0,0,0,0,0,0.0428,0.0427,0.0413,0.0417,0.0415,0.0405,0.0403,0.0402,0.04,0.0381,0.0378,0.0396,0.0365,0.0361,0.0354,0.0364,0.0345,0.0344,0.0315,0.0315,0.0315,0.0369,0,0,0,0,0,0,0.0429,0.0427,0.0429,0.0418,0.0415,0.0412,0.0403,0.0401,0.04,0.0399,0.0382,0.0378,0.0365,0.0356,0.0353,0.0362,0.0343,0.0315,0.0315,0.0315,0.0367,0.0371,0.0374,0,0,0,0,0,0.0429,0.0433,0.0429,0.0428,0.0417,0.0412,0.041,0.0403,0.04,0.0401,0.0391,0.0379,0.0353,0.0355,0.0351,0.036,0.0315,0.0315,0.0315,0.0366,0.037,0.0374,0,0,0,0,0,0,0.0442,0.0432,0.0427,0.0429,0.0423,0.0411,0.0411,0.0406,0.0399,0.0399,0.0381,0.0377,0.0373,0.0356,0.0359,0.0349,0.0331,0.033,0.0371,0.0375,0.0378,0.0409,0.0342,0,0,0,0,0,0.0445,0.0444,0.0434,0.0436,0.0433,0.0423,0.0421,0.0416,0.0407,0.0404,0.0394,0.038,0.0368,0.0364,0.0349,0.0347,0.0341,0.0347,0.0351,0.0354,0.0375,0.0376,0.0382,0.0315,0.0315,0.0315,0,0,0.0449,0.0445,0.0444,0.0438,0.0432,0.0435,0.0422,0.042,0.0428,0.0401,0.0409,0.039,0.0368,0.0366,0.0363,0.0357,0.0366,0.0354,0.0357,0.0377,0.0376,0.0383,0.0389,0.0315,0.0315,0.0315,0,0,0.0459,0.0455,0.0457,0.0455,0.045,0.0446,0.0448,0.0439,0.0441,0.0442,0.0425,0.0421,0.0399,0.0395,0.0387,0.04,0.0381,0.0384,0.0432,0.0432,0.0439,0.0444,0.0434,0.0438,0.0389,0.0389,0.0389,0,0.0466,0.0467,0.0457,0.0462,0.0468,0.0454,0.0464,0.0463,0.0456,0.0469,0.0451,0.0443,0.0418,0.0433,0.0433,0.0411,0.0403,0.0421,0.0439,0.0445,0.0449,0.0438,0.0442,0.0392,0.0392,0.0391,0.0391,0,0.0477,0.048,0.0483,0.0487,0.0493,0.0498,0.0498,0.0507,0.0507,0.0511,0.0525,0.0498,0.0502,0.0483,0.0462,0.0483,0.0463,0.0442,0.0436,0.046,0.0445,0.0449,0.0396,0.0395,0.0394,0.0393,0,0,0.0486,0.049,0.0491,0.0506,0.0508,0.052,0.0538,0.0559,0.0592,0.0578,0.0621,0.0592,0.0589,0.0581,0.0554,0.0551,0.0563,0.0516,0.0514,0.0518,0.0559,0.051,0.0508,0.0546,0.0547,0.0548,0.0531,0,0.0498,0.0515,0.0517,0.0547,0.0558,0.0566,0.0594,0.0615,0.0629,0.0666,0.0653,0.0674,0.0623,0.0631,0.0622,0.0584,0.0576,0.0569,0.0525,0.0524,0.0488,0.0512,0.0534,0.0519,0.0534,0.0535,0.0535,0,0.0507,0.0521,0.0546,0.059,0.06,0.0621,0.0681,0.0706,0.0748,0.0762,0.0783,0.0775,0.0781,0.0729,0.0692,0.069,0.0633,0.0595,0.0593,0.0537,0.0482,0.0498,0.0524,0.047,0.054,0.054,0.0539,0,0.0519,0.0548,0.0574,0.0584,0.0625,0.0655,0.069,0.0738,0.079,0.0833,0.0878,0.087,0.0881,0.0824,0.0738,0.0721,0.0689,0.0653,0.0555,0.055,0.0557,0.0551,0.0541,0.0626,0.0626,0.0626,0.0626,0,0.0529,0.0551,0.0585,0.0598,0.0666,0.0686,0.077,0.0802,0.0873,0.0958,0.0937,0.0995,0.0906,0.0876,0.0782,0.0684,0.0721,0.0578,0.0551,0.0572,0.0568,0.0509,0.0471,0.0625,0.0625,0.0626,0.0626,0,0.0528,0.054,0.0585,0.0639,0.0668,0.0721,0.0831,0.0901,0.095,0.1062,0.1085,0.1098,0.1054,0.0949,0.0851,0.0743,0.0613,0.0597,0.062,0.0595,0.0442,0.0405,0.0353,0.0335,0.0499,0.0498,0.0497,0,0.0526,0.0543,0.0621,0.067,0.0698,0.0783,0.0859,0.0934,0.1021,0.1134,0.12,0.1186,0.1197,0.1026,0.0836,0.0665,0.0589,0.0549,0.0514,0.0451,0.039,0.0359,0.0347,0.0542,0.0541,0.0541,0.054,0,0.0535,0.0563,0.0607,0.071,0.0792,0.0892,0.1003,0.1082,0.1189,0.1281,0.1386,0.1401,0.1241,0.1086,0.0825,0.0694,0.052,0.0531,0.0478,0.0437,0.0396,0.0359,0.0523,0.0536,0.0537,0.0537,0.0537,0.0537,0.0555,0.0597,0.067,0.0771,0.0868,0.0993,0.1084,0.1209,0.135,0.1497,0.1503,0.155,0.1329,0.0984,0.0794,0.0479,0.0477,0.0395,0.0359,0.0337,0.0311,0.0452,0.042,0.0419,0.0419,0.0419,0.0419,0,0.059,0.0645,0.0735,0.0859,0.0967,0.1015,0.1182,0.1284,0.1447,0.1576,0.1656,0.1598,0.131,0.101,0.0584,0.0369,0.0303,0.026,0.0251,0.0249,0.0395,0.0389,0.0335,0.0335,0.0335,0.0335,0.0335,0.0335,0.0613,0.0699,0.0748,0.0922,0.1012,0.1163,0.1256,0.1404,0.153,0.1689,0.1747,0.1773,0.1591,0.083,0.0369,0.0261,0.0158,0.0102,0.0051,0.0175,0.0186,0.0197,0.0184,0.0088,0.0087,-0.0049,-0.0051,-0.0052]}],[{"header":{"parameterUnit":"m.s-1","parameterCategory":2,"la1":30.2991,"la2":30.254,"lo1":-89.0895,"lo2":-89.0444,"dy":0.0017,"dx":0.0017,"nx":28,"ny":28,"refTime":"2023-09-08T03:00:00:Z","depth":"2","parameterNumber":2,"parameterNumberName":"U-component_of_CURRENTS"},"data":[0,0,0,0,0,0,0,0,0,0,0,0,0,0,0,0,0,0,0,0,0,0,0,0,0,0,0,0,0,0,0,0,0,0,0,0,0,0,0,0,0,0,0,0,0,0,0,0,0,0,0,0,0,0,0,0,0,0,0.2432,0.2433,0,0.2454,0.2454,0.2454,0.2451,0.2451,0.2451,0.2451,0.2468,0.2468,0.2469,0,0,0,0,0,0,0,0,0,0,0,0,0,0.2386,0.2386,0.2432,0.2433,0.2433,0.2454,0.2454,0.2454,0.2451,0.2451,0.2451,0.2451,0.2467,0.2468,0.2469,0,0,0,0,0,0,0,0,0,0,0,0,0,0.2404,0.2386,0.2432,0.2437,0.2437,0.2454,0.2454,0.2454,0.2451,0.2451,0.2451,0.2451,0.2467,0.2468,0.2469,0.2476,0,0,0.2471,0.2471,0,0,0,0,0,0,0,0,0.2403,0.2405,0.2435,0.2436,0.2437,0.2453,0.2444,0.2463,0.2451,0.2442,0.2451,0.245,0.2464,0.2465,0.2465,0.2477,0.2478,0.2471,0.2472,0.2472,0.2472,0,0,0,0,0,0,0,0.2401,0.2404,0.2438,0.2436,0.2437,0.2437,0.2439,0.2448,0.2451,0.2443,0.2444,0.2451,0.2464,0.2464,0.2466,0.2478,0.2471,0.2472,0.2472,0.2473,0.251,0.2511,0,0,0,0,0,0,0.2405,0.2403,0.2437,0.2439,0.2423,0.2438,0.244,0.2445,0.2451,0.2453,0.2451,0.2451,0.2463,0.2465,0.2466,0.2515,0.2472,0.2473,0.2473,0.251,0.2511,0.2511,0,0,0,0,0,0,0.2404,0.2408,0.2436,0.2424,0.2428,0.244,0.2445,0.2446,0.2461,0.2458,0.2459,0.2468,0.2463,0.2465,0.2482,0.2514,0.2473,0.2474,0.2509,0.251,0.2511,0.2587,0,0,0,0,0,0,0.2403,0.2407,0.2409,0.2424,0.2429,0.2452,0.2445,0.2446,0.2467,0.2467,0.2473,0.2473,0.2463,0.248,0.2482,0.2514,0.2474,0.2509,0.251,0.2511,0.2584,0.259,0.2596,0,0,0,0,0,0.2401,0.2401,0.2408,0.2413,0.2431,0.2452,0.2454,0.246,0.2468,0.2474,0.2479,0.2474,0.2488,0.2482,0.2484,0.2517,0.2508,0.2509,0.2511,0.2581,0.2589,0.2596,0,0,0,0,0,0,0.2388,0.2402,0.241,0.2416,0.2438,0.2453,0.2458,0.2473,0.2482,0.2482,0.2484,0.2484,0.2509,0.2498,0.2491,0.2527,0.2496,0.2498,0.2549,0.2557,0.2562,0.2549,0.2475,0,0,0,0,0,0.2387,0.2387,0.241,0.242,0.2429,0.2451,0.2461,0.2468,0.2482,0.2487,0.2499,0.2503,0.2513,0.2523,0.2522,0.2548,0.2541,0.2567,0.2573,0.2579,0.2567,0.2609,0.2619,0.2515,0.2515,0.2515,0,0,0.2383,0.2395,0.2394,0.2417,0.2432,0.2443,0.2455,0.2474,0.2485,0.2487,0.2509,0.2525,0.2522,0.2546,0.2557,0.2545,0.2602,0.258,0.2585,0.257,0.2612,0.2622,0.2631,0.2516,0.2516,0.2516,0,0,0.2379,0.2392,0.2389,0.2408,0.2434,0.2445,0.2458,0.2486,0.2497,0.252,0.2529,0.2566,0.2574,0.2592,0.2597,0.2634,0.263,0.2639,0.2668,0.2711,0.272,0.2728,0.2726,0.2734,0.2647,0.2647,0.2647,0,0.2368,0.2376,0.2395,0.2407,0.2418,0.245,0.2456,0.2474,0.2507,0.2528,0.2527,0.2581,0.2592,0.2635,0.265,0.2651,0.2658,0.2648,0.2721,0.2729,0.2736,0.2732,0.274,0.2651,0.2651,0.265,0.265,0,0.2375,0.2375,0.2381,0.2398,0.2416,0.2427,0.2458,0.2483,0.2507,0.2536,0.2589,0.2614,0.2651,0.2671,0.2672,0.2737,0.2719,0.2725,0.2709,0.2752,0.2744,0.275,0.2656,0.2655,0.2654,0.2653,0,0,0.2345,0.2371,0.2373,0.2374,0.2408,0.2422,0.2449,0.2485,0.2517,0.2561,0.2609,0.2654,0.2698,0.2705,0.2737,0.2778,0.2844,0.2779,0.2779,0.2785,0.2914,0.2809,0.2805,0.2878,0.288,0.2881,0.2887,0,0.2334,0.234,0.2364,0.2368,0.2366,0.2407,0.244,0.2484,0.252,0.2578,0.2634,0.2689,0.2703,0.2745,0.2791,0.2836,0.2864,0.2839,0.2862,0.2861,0.2772,0.2811,0.2603,0.2584,0.2893,0.2894,0.2894,0,0.2324,0.2325,0.2324,0.2348,0.2357,0.2376,0.243,0.2465,0.2553,0.2595,0.2665,0.2712,0.2795,0.2796,0.2883,0.2872,0.2891,0.2912,0.2914,0.2789,0.2768,0.2591,0.2583,0.2904,0.2903,0.2903,0.2902,0,0.228,0.2293,0.2287,0.2295,0.2336,0.2356,0.2395,0.2474,0.2516,0.2617,0.2663,0.2756,0.2816,0.2866,0.2911,0.2913,0.2982,0.299,0.29,0.2891,0.2699,0.2671,0.3031,0.3031,0.3031,0.3031,0.3031,0,0.2242,0.2235,0.2268,0.2261,0.2282,0.2334,0.2376,0.2436,0.253,0.2587,0.2681,0.2731,0.2842,0.2892,0.2921,0.292,0.2992,0.2896,0.2892,0.2716,0.2691,0.2955,0.2946,0.3031,0.3031,0.3031,0.3031,0,0.2184,0.2204,0.2195,0.2235,0.2253,0.2275,0.2358,0.2395,0.2498,0.2571,0.2611,0.2735,0.2802,0.2865,0.2945,0.2919,0.2936,0.2911,0.2673,0.264,0.2809,0.2804,0.2813,0.2809,0.2806,0.2804,0.2802,0,0.2149,0.2137,0.2167,0.2173,0.2187,0.2229,0.2267,0.2371,0.2411,0.2555,0.2584,0.2685,0.2729,0.2788,0.2775,0.2777,0.2865,0.2563,0.2524,0.2794,0.2791,0.279,0.2789,0.2299,0.2293,0.2288,0.2285,0,0.2076,0.2096,0.2096,0.2112,0.2135,0.2159,0.2216,0.2241,0.2366,0.2428,0.2503,0.2552,0.261,0.2522,0.2522,0.2498,0.2549,0.246,0.2825,0.2383,0.231,0.2307,0.2323,0.2241,0.2245,0.2248,0.2251,0.2252,0.2028,0.202,0.2033,0.2041,0.2066,0.2076,0.2068,0.2129,0.2176,0.224,0.2349,0.2346,0.2363,0.226,0.2179,0.2112,0.2297,0.2197,0.2213,0.2234,0.217,0.2095,0.1971,0.1974,0.1976,0.1978,0.198,0,0.1955,0.1959,0.1964,0.1961,0.1947,0.1996,0.2019,0.1989,0.1988,0.207,0.211,0.194,0.1872,0.1886,0.1718,0.1697,0.1691,0.1621,0.1607,0.1652,0.1692,0.1601,0.1251,0.1249,0.1246,0.1244,0,0,0.1915,0.1888,0.1889,0.1837,0.1839,0.1789,0.1778,0.1752,0.177,0.1737,0.1715,0.1842,0.1867,0.1559,0.1498,0.1349,0.1496,0.1291,0.1883,0.1915,0.1953,0.2034,0.1945,0,0,0,0,0]},{"header":{"parameterUnit":"m.s-1","parameterCategory":2,"la1":30.2991,"la2":30.254,"lo1":-89.0895,"lo2":-89.0444,"dy":0.0017,"dx":0.0017,"nx":28,"ny":28,"refTime":"2023-09-08T03:00:00:Z","depth":"2","parameterNumber":3,"parameterNumberName":"V-component_of_CURRENTS"},"data":[0,0,0,0,0,0,0,0,0,0,0,0,0,0,0,0,0,0,0,0,0,0,0,0,0,0,0,0,0,0,0,0,0,0,0,0,0,0,0,0,0,0,0,0,0,0,0,0,0,0,0,0,0,0,0,0,0,0,0.0228,0.0228,0,0.0205,0.0204,0.0204,0.0186,0.0186,0.0186,0.0186,0.0154,0.0153,0.0152,0,0,0,0,0,0,0,0,0,0,0,0,0,0.022,0.0221,0.0228,0.0228,0.0228,0.0205,0.0204,0.0204,0.0186,0.0186,0.0186,0.0186,0.0154,0.0153,0.0152,0,0,0,0,0,0,0,0,0,0,0,0,0,0.0211,0.0221,0.0228,0.0218,0.0217,0.0205,0.0204,0.0203,0.0186,0.0186,0.0186,0.0186,0.0154,0.0153,0.0152,0.0142,0,0,0.0148,0.0147,0,0,0,0,0,0,0,0,0.0211,0.0211,0.0219,0.0218,0.0217,0.02,0.019,0.0183,0.0186,0.0195,0.0186,0.0186,0.017,0.0167,0.016,0.0141,0.0139,0.0148,0.0147,0.0146,0.0146,0,0,0,0,0,0,0,0.0212,0.0212,0.0216,0.0219,0.0218,0.0202,0.0201,0.0188,0.018,0.0194,0.0193,0.0195,0.0169,0.0161,0.0159,0.0139,0.0148,0.0146,0.0146,0.0145,0.0118,0.0118,0,0,0,0,0,0,0.0222,0.0212,0.0217,0.0216,0.0217,0.0202,0.0201,0.0204,0.0181,0.0178,0.0195,0.0194,0.0163,0.016,0.0158,0.0168,0.0146,0.0145,0.0144,0.0118,0.0118,0.0118,0,0,0,0,0,0,0.0222,0.0222,0.0218,0.0215,0.0214,0.0203,0.0206,0.0203,0.0201,0.0182,0.0178,0.0196,0.0163,0.016,0.0158,0.0166,0.0144,0.0143,0.0118,0.0118,0.0118,0.0174,0,0,0,0,0,0,0.0222,0.0223,0.0226,0.0216,0.0215,0.0218,0.0206,0.0203,0.0203,0.0202,0.0182,0.0179,0.0163,0.016,0.0156,0.0164,0.0142,0.0118,0.0118,0.0118,0.0172,0.0176,0.018,0,0,0,0,0,0.0221,0.0229,0.0227,0.0227,0.0221,0.0219,0.0216,0.0207,0.0203,0.0204,0.0195,0.018,0.0158,0.0159,0.0155,0.0162,0.0118,0.0118,0.0118,0.0171,0.0175,0.0179,0,0,0,0,0,0,0.0229,0.0228,0.0225,0.0232,0.0229,0.0217,0.0219,0.0212,0.0205,0.0206,0.0185,0.0182,0.018,0.0162,0.0164,0.0153,0.0133,0.0132,0.0174,0.0178,0.0182,0.0206,0.0141,0,0,0,0,0,0.0233,0.0239,0.0234,0.0241,0.0241,0.0231,0.0229,0.0224,0.0217,0.0214,0.0203,0.0188,0.0175,0.0172,0.0156,0.0155,0.0143,0.0154,0.0158,0.0161,0.0176,0.0169,0.0174,0.0119,0.0119,0.0119,0,0,0.0236,0.0239,0.0241,0.0243,0.024,0.0247,0.023,0.0233,0.0241,0.0212,0.022,0.0201,0.0177,0.0175,0.0172,0.0164,0.0167,0.0161,0.0164,0.0178,0.017,0.0175,0.018,0.0119,0.0119,0.0119,0,0,0.0252,0.0251,0.0262,0.0263,0.0266,0.0261,0.0266,0.0259,0.0259,0.0263,0.0242,0.0236,0.0216,0.0205,0.0196,0.021,0.0185,0.0196,0.0239,0.0232,0.0237,0.0241,0.0224,0.0226,0.0201,0.0201,0.0201,0,0.0255,0.0272,0.0264,0.0277,0.0285,0.0272,0.0288,0.0285,0.028,0.0288,0.0274,0.0257,0.0233,0.0238,0.0241,0.0221,0.0209,0.0227,0.0239,0.0243,0.0246,0.0227,0.0229,0.0203,0.0203,0.0203,0.0203,0,0.0283,0.0293,0.0301,0.0315,0.0321,0.0332,0.0332,0.0338,0.0337,0.0336,0.0342,0.0314,0.0309,0.0291,0.0271,0.0282,0.0262,0.0244,0.0233,0.0256,0.0233,0.0235,0.0207,0.0206,0.0206,0.0205,0,0,0.0296,0.0315,0.0319,0.0336,0.0344,0.0356,0.0372,0.0389,0.0414,0.04,0.043,0.0399,0.039,0.0378,0.0349,0.034,0.0343,0.0308,0.0306,0.0301,0.0323,0.0299,0.0298,0.0329,0.033,0.033,0.0295,0,0.0319,0.0353,0.0358,0.0393,0.0409,0.0411,0.0436,0.045,0.0455,0.048,0.0457,0.0469,0.0421,0.0425,0.0409,0.0364,0.035,0.0354,0.0293,0.0291,0.0277,0.03,0.031,0.0279,0.0295,0.0296,0.0296,0,0.0347,0.0366,0.0403,0.0443,0.0453,0.0475,0.0519,0.0542,0.0565,0.0573,0.0578,0.0561,0.0552,0.0506,0.0451,0.0456,0.0399,0.0356,0.0353,0.0318,0.0271,0.0259,0.028,0.0297,0.0297,0.0297,0.0297,0,0.0366,0.0403,0.0437,0.0447,0.0485,0.0511,0.054,0.0571,0.0613,0.0639,0.067,0.0645,0.0649,0.0581,0.0488,0.0475,0.042,0.0388,0.0311,0.0307,0.0298,0.0293,0.0351,0.0351,0.0351,0.0351,0.0351,0,0.0389,0.0415,0.045,0.0466,0.053,0.0546,0.0617,0.0641,0.0693,0.0759,0.0727,0.0763,0.067,0.0624,0.0525,0.0426,0.0447,0.033,0.0305,0.0315,0.0312,0.0314,0.031,0.035,0.035,0.035,0.035,0,0.0398,0.0416,0.0461,0.0511,0.0537,0.0585,0.0677,0.0733,0.0768,0.0852,0.087,0.0862,0.0806,0.0693,0.0583,0.0482,0.0381,0.0334,0.0347,0.0324,0.0261,0.026,0.0255,0.0255,0.0254,0.0253,0.0253,0,0.0406,0.0426,0.0497,0.0543,0.0568,0.0644,0.071,0.0769,0.0837,0.0915,0.0966,0.0938,0.0933,0.0756,0.0581,0.0412,0.0378,0.0292,0.0269,0.028,0.0255,0.0256,0.0256,0.027,0.0269,0.0269,0.0269,0,0.042,0.0445,0.0487,0.0582,0.0655,0.0743,0.0837,0.0901,0.0984,0.1055,0.1128,0.1128,0.0972,0.0811,0.0572,0.0447,0.0321,0.028,0.0303,0.0292,0.029,0.0267,0.0268,0.0266,0.0267,0.0267,0.0267,0.0267,0.044,0.0477,0.0543,0.0636,0.0724,0.0833,0.0913,0.1015,0.1131,0.124,0.1233,0.1235,0.1046,0.0749,0.0532,0.0299,0.032,0.0225,0.0227,0.0229,0.0237,0.0234,0.02,0.02,0.02,0.02,0.02,0,0.0469,0.0518,0.06,0.0711,0.081,0.0854,0.0997,0.1079,0.1216,0.1306,0.1363,0.1177,0.0996,0.0764,0.0433,0.0236,0.0216,0.0152,0.0177,0.0182,0.0186,0.0192,0.0143,0.0142,0.0141,0.014,0,0,0.0487,0.0562,0.0606,0.0763,0.0846,0.098,0.1062,0.1183,0.1274,0.1357,0.1364,0.1348,0.1077,0.0819,0.0549,0.0351,0.0307,0.0299,0.0369,0.0438,0.0443,0.0254,0.0271,0,0,0,0,0]}],[{"header":{"parameterUnit":"m.s-1","parameterCategory":2,"la1":30.2991,"la2":30.254,"lo1":-89.0895,"lo2":-89.0444,"dy":0.0017,"dx":0.0017,"nx":28,"ny":28,"refTime":"2023-09-08T03:00:00:Z","depth":"4","parameterNumber":2,"parameterNumberName":"U-component_of_CURRENTS"},"data":[0,0,0,0,0,0,0,0,0,0,0,0,0,0,0,0,0,0,0,0,0,0,0,0,0,0,0,0,0,0,0,0,0,0,0,0,0,0,0,0,0,0,0,0,0,0,0,0,0,0,0,0,0,0,0,0,0,0,0.1364,0.1364,0,0.1328,0.1328,0.1327,0.1351,0.1352,0.1353,0.1355,0.138,0.1379,0.1379,0,0,0,0,0,0,0,0,0,0,0,0,0,0.1358,0.1358,0.1364,0.1364,0.1364,0.1328,0.1328,0.1327,0.135,0.1352,0.1354,0.1356,0.138,0.1379,0.1379,0,0,0,0,0,0,0,0,0,0,0,0,0,0.1341,0.1358,0.1364,0.1375,0.1376,0.1329,0.1328,0.1326,0.135,0.1352,0.1354,0.1356,0.138,0.1379,0.1378,0.1328,0,0,0.1375,0.1375,0,0,0,0,0,0,0,0,0.1342,0.1341,0.1373,0.1374,0.1375,0.135,0.1335,0.1331,0.1349,0.1355,0.1355,0.1357,0.1377,0.1376,0.1357,0.1329,0.133,0.1375,0.1374,0.1374,0.1374,0,0,0,0,0,0,0,0.1344,0.1342,0.1346,0.1373,0.1374,0.1349,0.1349,0.1333,0.1352,0.1355,0.1358,0.1359,0.1377,0.1358,0.1359,0.133,0.1375,0.1374,0.1374,0.1373,0.1415,0.1417,0,0,0,0,0,0,0.1359,0.1344,0.1347,0.1345,0.1368,0.1348,0.1348,0.1352,0.1351,0.1353,0.1358,0.1361,0.1359,0.136,0.136,0.1419,0.1374,0.1373,0.1372,0.1413,0.1415,0.1417,0,0,0,0,0,0,0.1359,0.1359,0.1349,0.1347,0.1344,0.1347,0.135,0.135,0.137,0.1353,0.1357,0.1382,0.1361,0.1361,0.1388,0.1416,0.1373,0.1372,0.1411,0.1414,0.1416,0.1461,0,0,0,0,0,0,0.1359,0.136,0.138,0.1348,0.1345,0.1351,0.1349,0.1348,0.1367,0.1372,0.1374,0.1377,0.1363,0.139,0.1387,0.1414,0.1371,0.1409,0.1412,0.1416,0.1457,0.1465,0.1471,0,0,0,0,0,0.1359,0.1371,0.1381,0.1382,0.1369,0.1352,0.1348,0.1353,0.1367,0.1378,0.139,0.1378,0.1409,0.139,0.1386,0.1413,0.1407,0.1411,0.1415,0.1454,0.1463,0.1471,0,0,0,0,0,0,0.137,0.1374,0.1384,0.1397,0.1393,0.1358,0.1372,0.137,0.1381,0.1405,0.1387,0.139,0.1429,0.1415,0.1394,0.1439,0.1411,0.1415,0.1442,0.1451,0.1457,0.145,0.137,0,0,0,0,0,0.1384,0.1404,0.1393,0.1406,0.1411,0.1397,0.1397,0.1403,0.1402,0.141,0.1409,0.1421,0.1431,0.144,0.1445,0.1454,0.1456,0.1476,0.1483,0.1489,0.1484,0.1531,0.1542,0.143,0.143,0.143,0,0,0.1392,0.1397,0.1409,0.1412,0.1411,0.1412,0.1403,0.1419,0.1424,0.141,0.1433,0.1446,0.1443,0.1466,0.1482,0.1463,0.1522,0.1494,0.1499,0.149,0.1536,0.1547,0.1557,0.1433,0.1432,0.1432,0,0,0.1406,0.1426,0.1448,0.1448,0.1463,0.1449,0.1464,0.1455,0.1466,0.148,0.1485,0.1515,0.1516,0.152,0.152,0.1566,0.1562,0.1583,0.1602,0.1649,0.1658,0.1666,0.1678,0.1686,0.158,0.1581,0.1581,0,0.1421,0.1439,0.1449,0.1463,0.1464,0.1471,0.1479,0.1481,0.1484,0.1497,0.1506,0.1537,0.1537,0.156,0.1581,0.158,0.16,0.1566,0.1657,0.1665,0.1673,0.1682,0.1691,0.1583,0.1583,0.1583,0.1582,0,0.1436,0.1462,0.1473,0.1494,0.1496,0.1507,0.1508,0.1528,0.1545,0.1546,0.1592,0.1594,0.1618,0.1624,0.1611,0.1666,0.1661,0.1665,0.1631,0.1686,0.1693,0.1702,0.1587,0.1586,0.1585,0.1585,0,0,0.143,0.1477,0.1484,0.15,0.1515,0.1512,0.1536,0.1547,0.1575,0.1598,0.1631,0.1649,0.1675,0.1678,0.1681,0.1705,0.1769,0.171,0.1711,0.1712,0.1863,0.1743,0.174,0.1802,0.1804,0.1806,0.1844,0,0.1439,0.1475,0.1489,0.1513,0.1525,0.1538,0.1549,0.1572,0.1598,0.1637,0.1663,0.1706,0.169,0.1724,0.1748,0.1774,0.1796,0.1757,0.1816,0.1817,0.1697,0.1748,0.1812,0.185,0.1852,0.1853,0.1854,0,0.1442,0.1465,0.1497,0.1526,0.1533,0.155,0.158,0.1598,0.1654,0.1682,0.1736,0.1767,0.1816,0.1802,0.1862,0.1848,0.186,0.1863,0.1866,0.174,0.1713,0.1786,0.1869,0.1868,0.1867,0.1866,0.1865,0,0.1419,0.1465,0.1492,0.15,0.1534,0.1559,0.1582,0.1625,0.165,0.1737,0.1781,0.1838,0.1891,0.1922,0.1937,0.1923,0.1992,0.1977,0.1869,0.186,0.1936,0.1927,0.2019,0.2019,0.2019,0.2019,0.2019,0,0.1399,0.1425,0.1497,0.1505,0.1537,0.1569,0.1613,0.1646,0.1712,0.1751,0.1824,0.1862,0.1932,0.1976,0.1973,0.1944,0.2033,0.1872,0.1868,0.1953,0.1945,0.1941,0.1931,0.202,0.202,0.202,0.2019,0,0.1361,0.1413,0.1446,0.1505,0.153,0.1557,0.1626,0.1655,0.1733,0.1794,0.1833,0.1914,0.197,0.2006,0.2054,0.1981,0.197,0.1938,0.2017,0.2017,0.1792,0.1785,0.1814,0.181,0.1807,0.1804,0.1802,0,0.134,0.1359,0.1439,0.1466,0.1501,0.1556,0.1586,0.1659,0.1687,0.18,0.1819,0.1917,0.1959,0.1922,0.1969,0.1955,0.1927,0.1895,0.1836,0.1781,0.1775,0.1773,0.177,0.1796,0.1796,0.1795,0.1794,0,0.1284,0.1334,0.1361,0.1423,0.1471,0.1503,0.1562,0.157,0.1653,0.1747,0.1765,0.1782,0.1836,0.1849,0.1858,0.184,0.19,0.1861,0.1867,0.181,0.1761,0.1757,0.1758,0.1783,0.1784,0.1785,0.1786,0,0.1247,0.1258,0.1315,0.1353,0.1415,0.1427,0.1464,0.1492,0.1525,0.1642,0.1648,0.1742,0.1829,0.1791,0.1797,0.1776,0.1735,0.1651,0.1667,0.168,0.1615,0.1531,0.148,0,0,0,0,0,0.1197,0.1201,0.1236,0.1268,0.1327,0.136,0.143,0.1467,0.1556,0.153,0.1578,0.1618,0.1623,0.1664,0.1613,0.1732,0.1744,0.1662,0.1656,0.1721,0.1734,0.1668,0,0,0,0,0,0,0.1163,0.1196,0.1204,0.1191,0.12,0.1244,0.1285,0.1347,0.1328,0.143,0.1446,0.1516,0.1553,0.1646,0.1586,0.1596,0.1554,0.1716,0.1711,0.1714,0.1725,0.1736,0.1673,0,0,0,0,0]},{"header":{"parameterUnit":"m.s-1","parameterCategory":2,"la1":30.2991,"la2":30.254,"lo1":-89.0895,"lo2":-89.0444,"dy":0.0017,"dx":0.0017,"nx":28,"ny":28,"refTime":"2023-09-08T03:00:00:Z","depth":"4","parameterNumber":3,"parameterNumberName":"V-component_of_CURRENTS"},"data":[0,0,0,0,0,0,0,0,0,0,0,0,0,0,0,0,0,0,0,0,0,0,0,0,0,0,0,0,0,0,0,0,0,0,0,0,0,0,0,0,0,0,0,0,0,0,0,0,0,0,0,0,0,0,0,0,0,0,0.0145,0.0145,0,0.0136,0.0135,0.0135,0.0126,0.0126,0.0126,0.0126,0.0113,0.0113,0.0113,0,0,0,0,0,0,0,0,0,0,0,0,0,0.0136,0.0137,0.0145,0.0145,0.0145,0.0136,0.0135,0.0135,0.0126,0.0126,0.0126,0.0126,0.0114,0.0113,0.0113,0,0,0,0,0,0,0,0,0,0,0,0,0,0.0134,0.0137,0.0145,0.014,0.014,0.0136,0.0135,0.0135,0.0126,0.0126,0.0126,0.0126,0.0114,0.0113,0.0113,0.011,0,0,0.0111,0.0111,0,0,0,0,0,0,0,0,0.0134,0.0134,0.0141,0.014,0.014,0.0133,0.0128,0.0127,0.0126,0.013,0.0126,0.0126,0.012,0.0119,0.0116,0.0109,0.0109,0.0111,0.0111,0.0111,0.011,0,0,0,0,0,0,0,0.0134,0.0134,0.014,0.0141,0.014,0.0132,0.0132,0.0127,0.0125,0.013,0.013,0.013,0.012,0.0117,0.0116,0.0108,0.0111,0.0111,0.011,0.011,0.0106,0.0106,0,0,0,0,0,0,0.0139,0.0135,0.014,0.014,0.0138,0.0133,0.0132,0.0134,0.0125,0.0124,0.013,0.013,0.0117,0.0116,0.0115,0.0127,0.0111,0.011,0.011,0.0106,0.0106,0.0106,0,0,0,0,0,0,0.0139,0.0139,0.0141,0.0138,0.0137,0.0133,0.0135,0.0134,0.0137,0.0125,0.0124,0.0135,0.0117,0.0116,0.012,0.0126,0.011,0.0109,0.0105,0.0106,0.0106,0.0142,0,0,0,0,0,0,0.0138,0.0139,0.0144,0.0138,0.0138,0.0144,0.0136,0.0134,0.0137,0.0137,0.0128,0.0127,0.0117,0.012,0.0119,0.0125,0.0109,0.0105,0.0106,0.0106,0.014,0.0143,0.0146,0,0,0,0,0,0.0138,0.0145,0.0144,0.0145,0.0144,0.0144,0.0143,0.0139,0.0138,0.0141,0.0137,0.0127,0.0121,0.0121,0.0119,0.0125,0.0105,0.0105,0.0106,0.0139,0.0143,0.0146,0,0,0,0,0,0,0.0142,0.0144,0.0144,0.0151,0.015,0.0143,0.0147,0.0144,0.0143,0.0146,0.0133,0.0132,0.0135,0.0125,0.0125,0.0124,0.011,0.011,0.0136,0.0139,0.0142,0.0152,0.0109,0,0,0,0,0,0.0146,0.0154,0.0151,0.0158,0.0159,0.0155,0.0155,0.0153,0.0151,0.0151,0.0146,0.014,0.0134,0.0134,0.0127,0.013,0.0112,0.0131,0.0134,0.0136,0.0143,0.0116,0.0117,0.0108,0.0108,0.0108,0,0,0.0149,0.0153,0.0156,0.016,0.016,0.0168,0.0155,0.016,0.017,0.015,0.0163,0.015,0.0137,0.014,0.014,0.0134,0.0129,0.0137,0.0139,0.0145,0.0117,0.0117,0.0118,0.0108,0.0108,0.0108,0,0,0.0162,0.0164,0.0175,0.0178,0.0182,0.0181,0.0185,0.0183,0.0186,0.0195,0.0181,0.0174,0.0171,0.016,0.0154,0.0167,0.0144,0.0164,0.0189,0.0162,0.0163,0.0163,0.0141,0.014,0.0167,0.0167,0.0167,0,0.0166,0.0182,0.0178,0.019,0.0198,0.019,0.0205,0.0206,0.0207,0.0212,0.0205,0.0194,0.018,0.018,0.0183,0.0174,0.0157,0.0179,0.0166,0.0166,0.0166,0.0143,0.0141,0.0169,0.0168,0.0168,0.0168,0,0.0189,0.0201,0.0209,0.0225,0.0231,0.0242,0.0244,0.0251,0.0253,0.0253,0.0255,0.0233,0.0228,0.0217,0.0207,0.0199,0.0187,0.0172,0.0159,0.0169,0.0144,0.0141,0.0171,0.017,0.017,0.0169,0,0,0.0199,0.0221,0.0225,0.0241,0.0251,0.0262,0.0278,0.0291,0.0308,0.0298,0.0314,0.0293,0.028,0.0272,0.0249,0.0226,0.0205,0.0204,0.0201,0.0185,0.0151,0.0157,0.0154,0.0187,0.0187,0.0187,0.0135,0,0.0219,0.0251,0.0257,0.0291,0.0307,0.0309,0.0329,0.0339,0.0343,0.0355,0.0328,0.0333,0.0301,0.03,0.0271,0.0225,0.0198,0.0221,0.0142,0.014,0.0146,0.0151,0.0185,0.0132,0.0132,0.0131,0.0131,0,0.0243,0.0261,0.0296,0.0331,0.034,0.036,0.0392,0.041,0.0418,0.042,0.0411,0.0393,0.0366,0.0334,0.0257,0.0275,0.0219,0.0176,0.0172,0.0165,0.014,0.012,0.0124,0.0125,0.0125,0.0126,0.0126,0,0.0256,0.0293,0.0324,0.0334,0.0367,0.0389,0.0414,0.0432,0.0459,0.0464,0.0478,0.0438,0.0427,0.0352,0.027,0.0263,0.0182,0.0156,0.0107,0.0106,0.01,0.01,0.0096,0.0096,0.0097,0.0097,0.0097,0,0.0274,0.03,0.0336,0.0352,0.0403,0.0418,0.0472,0.0486,0.0513,0.0551,0.0517,0.0526,0.0431,0.0377,0.0288,0.0196,0.0193,0.0116,0.0095,0.0116,0.0118,0.0097,0.0098,0.0095,0.0095,0.0096,0.0096,0,0.0279,0.03,0.0342,0.0387,0.041,0.0448,0.0519,0.0556,0.0574,0.062,0.0626,0.0593,0.0528,0.0428,0.0309,0.023,0.0133,0.0097,0.0139,0.0121,0.0068,0.0071,0.0035,0.0035,0.0035,0.0035,0.0035,0,0.0284,0.0304,0.0369,0.0407,0.0432,0.0494,0.0544,0.0585,0.0625,0.0661,0.0682,0.0641,0.0606,0.0449,0.0331,0.017,0.014,0.0082,0.0063,0.0079,0.0062,0.0066,0.0069,0.0035,0.0035,0.0034,0.0034,0,0.0291,0.0315,0.035,0.0428,0.0489,0.0558,0.0627,0.066,0.0712,0.0727,0.0735,0.0665,0.0593,0.0462,0.0344,0.0222,0.0115,0.0079,0.0078,0.006,0.0078,0.0062,0.0065,0.0034,0.0034,0.0034,0.0034,0,0.03,0.0327,0.0381,0.0451,0.0529,0.0602,0.064,0.0694,0.0735,0.0769,0.0769,0.0697,0.0654,0.0489,0.0377,0.0266,0.0223,0.0164,0.0157,0.0156,0.0204,0.0244,0.0239,0,0,0,0,0,0.0307,0.034,0.0404,0.0483,0.056,0.0608,0.0689,0.072,0.0766,0.078,0.0778,0.0715,0.0569,0.0503,0.0394,0.0354,0.0192,0.0218,0.0117,0.0031,0.0032,0.0067,0,0,0,0,0,0,0.0312,0.0364,0.0398,0.0496,0.0555,0.0644,0.0698,0.0732,0.0737,0.0764,0.0691,0.0667,0.0524,0.0633,0.0385,0.0353,0.0267,0.0155,0.0152,0.0031,0.0031,0.0032,0.0068,0,0,0,0,0]}]]